Regional Weather Roundup
Issued by NWS

Home | Current Version | Previous Version | Text Only | Print | Product List | Glossary Off
Versions: 1 2 3 4 5 6 7 8 9 10 11 12 13 14 15 16 17 18 19 20 21 22 23 24 25 26 27 28 29 30 31 32 33 34 35 36 37 38 39 40 41 42 43 44 45 46 47 48 49 50

000
ASUS43 KFSD 011102
RWRSD

WEATHER ROUNDUP FOR SOUTH DAKOTA
NATIONAL WEATHER SERVICE SIOUX FALLS SD
600 AM CDT WED APR 01 2015

NOTE: "FAIR" INDICATES FEW OR NO CLOUDS BELOW 12,000 FEET WITH NO
SIGNIFICANT WEATHER AND/OR OBSTRUCTIONS TO VISIBILITY.


SDZ001>005-009-010-012>017-011200-
NORTHWEST AND NORTH CENTRAL SOUTH DAKOTA

CITY           SKY/WX    TMP DP  RH WIND       PRES   REMARKS
BUFFALO          N/A     54  37  52 NW40G53   29.43R
FAITH            N/A     61  21  21 SW12      29.40F
MOBRIDGE       MOCLDY    51  30  44 SE12      29.38F
$$

SDZ012>016-024>037-041>051-057-063-072>074-011200-
SOUTHWEST AND SOUTH CENTRAL SOUTH DAKOTA

CITY           SKY/WX    TMP DP  RH WIND       PRES   REMARKS
RAPID CTY ARPT MOCLDY    50  25  37 NW7       29.50R
PIERRE         PTCLDY    56  28  34 S7        29.42F
CUSTER         MOCLDY    56  17  21 W12       29.62R
ELLSWORTH AFB  MOCLDY    56  24  29 NW12      29.50R
PHILIP         MOCLDY    62  20  19 SW10      29.43F
PINE RIDGE     PTCLDY    56  21  25 S15       29.54F
SPEARFISH      FAIR      55  32  41 NW23G33   29.63R
WINNER         FAIR      63  26  24 S23G32    29.50F
$$

SDZ004>011-016>023-039-040-011200-
NORTHEAST SOUTH DAKOTA

CITY           SKY/WX    TMP DP  RH WIND       PRES   REMARKS
ABERDEEN       MOCLDY    51  33  50 S14       29.48F
WATERTOWN      PTCLDY    50  33  52 S13       29.57F
BROOKINGS      PTCLDY    52  32  46 S17       29.64S
SISSETON         N/A     44  34  67 SE12      29.52F
$$

SDZ017-020-022-023-036>040-048>070-011200-
SOUTHEAST SOUTH DAKOTA

CITY           SKY/WX    TMP DP  RH WIND       PRES   REMARKS
SIOUX FALLS    CLEAR     56  31  38 S21G26    29.66F
HURON          MOCLDY    52  33  48 S18G26    29.52F
MITCHELL       CLEAR     55  34  45 S18       29.57F
YANKTON        CLEAR     59  34  38 S18G25    29.66F
$$

ABBREVIATIONS USED IN REMARKS
   TC - TEMPERATURE IN CELSIUS
  WCI - WIND CHILL INDEX
   HX - HEAT INDEX
  VSB - VISIBILITY




USA.gov is the U.S. government's official web portal to all federal, state and local government web resources and services.